NOAA NWS Hourly Roundups by Site

Regional Weather Roundup for Indianapolis, IN

To Select Another Site Choose from List

Select Site:  

096
ASUS43 KIND 181709
RWRIN

WEATHER ROUNDUP FOR INDIANA
NATIONAL WEATHER SERVICE INDIANAPOLIS IN
100 PM EDT SUN APR 18 2021

NOTE: "FAIR" INDICATES FEW OR NO CLOUDS BELOW 12,000 FEET WITH NO
SIGNIFICANT WEATHER AND/OR OBSTRUCTIONS TO VISIBILITY.

* - STATION DOES NOT REPORT WEATHER SUCH AS PRECIPITATION OR FOG.

+ - STATION NOT QUALITY CONTROLLED BY THE NATIONAL WEATHER SERVICE.
    USE DATA WITH CAUTION...ESPECIALLY DEWPOINT AND RELATIVE
    HUMIDITY OBSERVATIONS.

INZ001>003-010>013-019-020-181800-
NORTHWEST INDIANA

CITY           SKY/WX    TMP DP  RH WIND       PRES   REMARKS
GARY /AIRPORT/ SUNNY     59  32  36 SW5       29.93F
KNOX *+        PTSUNNY   57  27  30 CALM      29.93F
LA PORTE +     MOSUNNY   55  29  36 W7        29.94F
MICHIGAN CITY+ MOSUNNY   54  32  43 NW3       29.94F
MONTICELLO +   MOSUNNY   59  26  27 W7        29.94F
RENSSELAER +   MOSUNNY   55  32  41 W7        29.94F
VALPARAISO     MOSUNNY   57  31  37 SW7       29.93F

$$

LMZ046-743>745-181800-
SOUTHERN LAKE MICHIGAN

STATION/POSITION TIME  TEMP    WIND        PRES    WAVE
                       AIR SEA DIR/SP/G            HT
                 (UTC) (F)     (DEG/KT/KT) (MB)    (FT)
BURNS HARBOR     1640   49      60/  3/  4 1014.2F
MICHIGAN CITY    1640   45      20/  4/  5 1015.3F

$$

INZ004-005-014>016-021>024-181800-
NORTH CENTRAL INDIANA

CITY           SKY/WX    TMP DP  RH WIND       PRES   REMARKS
ELKHART        MOSUNNY   55  28  35 W5        29.92F
GOSHEN         MOSUNNY   55  32  41 W6        29.92F
LOGANSPORT +   MOSUNNY   57  27  30 CALM      29.95F
PERU/GRISSOM   CLOUDY    55  33  43 W6        29.93F
PLYMOUTH *+    SUNNY     55  25  30 NW5       29.93F
ROCHESTER +    MOSUNNY   59  27  29 NW7       29.94S
SOUTH BEND     MOSUNNY   57  29  34 W8        29.94F
WARSAW +       MOSUNNY   55  32  41 NW5       29.93F

$$

INZ006>009-017-018-025>027-181800-
NORTHEAST INDIANA

CITY           SKY/WX    TMP DP  RH WIND       PRES   REMARKS
ANGOLA *+      MOSUNNY   55  28  35 N8        29.91F
AUBURN +       MOSUNNY   55  36  47 NW6       29.92F
FORT WAYNE     PTSUNNY   55  38  52 N8        29.93S
HUNTINGTON +   PTSUNNY   55  34  44 NW7       29.93F
KENDALLVILLE + FAIR      55  36  47 NW8       29.91F

$$

INZ028-029-035-036-043>045-051>053-181800-
WEST CENTRAL INDIANA

CITY           SKY/WX    TMP DP  RH WIND       PRES   REMARKS
CRAWFORDSVL +  MOSUNNY   57  30  35 CALM      29.95F
GREENCASTLE +  PTSUNNY   60  33  35 NW5       29.94F
LAFAYETTE      MOSUNNY   62  32  32 NE3       29.94F
TERRE HAUTE    SUNNY     63  37  38 S3        29.94F

$$

INZ030>032-037>040-046>048-054>057-064-065-181800-
CENTRAL INDIANA

CITY           SKY/WX    TMP DP  RH WIND       PRES   REMARKS
COLUMBUS       SUNNY     59  34  38 N10       29.96F
FRANKFORT +    CLOUDY    57  25  28 NW3       29.95F
GREENWOOD *+   SUNNY     58  28  31 NW6       29.96F
INDIANAPOLIS   MOSUNNY   60  27  28 W7        29.94F
-EAGLE CREEK   MOSUNNY   60  29  30 MISG      29.94F
KOKOMO +       MOSUNNY   56  31  38 NW7       29.95F
MARION +       PTSUNNY   54  34  46 NW5       29.95F
MT COMFORT *+  MOSUNNY   59  36  41 NW10      29.95F
SHELBYVILLE    SUNNY     62  26  25 N8G20     29.94F

$$

INZ033-034-041-042-049-050-058-059-181800-
EAST CENTRAL INDIANA

CITY           SKY/WX    TMP DP  RH WIND       PRES   REMARKS
MUNCIE         MOSUNNY   59  33  37 NW8G20    29.94S
PORTLAND +     FAIR      54  28  37 NW8       29.93S
RICHMOND +     FAIR      54  32  43 W12G17    29.93F

$$

INZ060-061-067>069-081>083-085>088-181800-
SOUTHWEST INDIANA

CITY           SKY/WX    TMP DP  RH WIND       PRES   REMARKS
EVANSVILLE     CLOUDY    61  39  44 VRB5      29.96F
HUNTINGBURG +  MOSUNNY   60  41  49 W6        29.96F
WASHINGTON +   PTSUNNY   60  39  45 W7        29.95F

$$

INZ062-063-066-070>080-084-089>092-181800-
SOUTH CENTRAL AND SOUTHEAST INDIANA

CITY           SKY/WX    TMP DP  RH WIND       PRES   REMARKS
BATESVILLE +   SUNNY     59  25  27 W8G15     29.94F
BLOOMINGTON    PTSUNNY   60  34  37 VRB3      29.94F
FRENCH LICK *+ MOSUNNY   59  32  36 SW9       29.96F
JEFFERSONVL +  FAIR      62  39  42 NW7       29.95F
MADISON *+     MOSUNNY   59  37  44 SW6       29.97F

$$




 

View Past Reports for Indianapolis, IN.

Products Courtesy of NOAA-NWS
NWS Information Parsing Script by Ken True at Saratoga Weather - Script by SE Lincoln Weather.